Terug naar catalogus

STARLINK-31732

ActiefCommunicatieVLEO
NORAD 60099·PAYLOAD·🇺🇸 United States

Gelanceerd Jun 23, 2024 vanaf Cape Canaveral Space Force Station

Loading…

Volgende Passages (komende 24 uur)

TLE

VersSource: CelesTrak SupGP

Epoch: Sep 14, 2026, 22:37 UTC

1 60099C 24117J   26257.94284722  .00022774  00000+0  67274-3 0  2576
2 60099  53.1575 235.6305 0001457  93.4244   0.2260 15.34384909    16

Volg STARLINK-31732 in realtime met AllMySat

Download on the App Store